Wetterdaten: Woche 15.11.10 - 21.11.10 (KW46)
Datum Zeit Temperatur Luftfeuchte Luftdruck Niederschlag Windrichtung Sonnenschein Solar Wind
15.11.2010 00:00 7,6 C 92 % 1007,9 hPa 0,0 l/m N 0,00 h 0 W/m 0,0 km/h (0 Bft)
15.11.2010 01:00 7,4 C 92 % 1007,9 hPa 0,0 l/m N 0,00 h 0 W/m 0,0 km/h (0 Bft)
15.11.2010 02:00 7,2 C 93 % 1008,1 hPa 0,0 l/m N 0,00 h 0 W/m 0,0 km/h (0 Bft)
15.11.2010 03:00 6,9 C 93 % 1008,1 hPa 0,0 l/m N 0,00 h 0 W/m 0,1 km/h (0 Bft)
15.11.2010 04:00 6,8 C 94 % 1008,2 hPa 0,0 l/m N 0,00 h 0 W/m 2,8 km/h (1 Bft)
15.11.2010 05:00 6,8 C 95 % 1008,0 hPa 0,0 l/m N-NO 0,00 h 0 W/m 2,5 km/h (1 Bft)
15.11.2010 06:00 6,9 C 95 % 1008,4 hPa 0,0 l/m N-NO 0,00 h 0 W/m 4,8 km/h (1 Bft)
15.11.2010 07:00 7,1 C 95 % 1008,7 hPa 0,0 l/m N 0,00 h 7 W/m 4,5 km/h (1 Bft)
15.11.2010 08:00 7,9 C 97 % 1008,9 hPa 0,0 l/m N 0,00 h 37 W/m 3,9 km/h (1 Bft)
15.11.2010 09:00 9,5 C 96 % 1009,0 hPa 0,0 l/m NO 0,00 h 45 W/m 9,9 km/h (2 Bft)
15.11.2010 10:00 9,6 C 95 % 1008,7 hPa 0,0 l/m NO 0,00 h 43 W/m 12,1 km/h (2 Bft)
15.11.2010 11:00 9,3 C 95 % 1008,0 hPa 0,0 l/m O-NO 0,00 h 80 W/m 13,4 km/h (3 Bft)
15.11.2010 12:00 9,8 C 94 % 1007,3 hPa 0,0 l/m NO 0,00 h 50 W/m 14,2 km/h (3 Bft)
15.11.2010 13:00 10,3 C 92 % 1007,1 hPa 0,0 l/m N-NO 0,00 h 58 W/m 8,5 km/h (2 Bft)
15.11.2010 14:00 10,4 C 90 % 1007,3 hPa 0,0 l/m N-NO 0,00 h 24 W/m 9,9 km/h (2 Bft)
15.11.2010 15:00 10,2 C 89 % 1007,5 hPa 0,0 l/m N-NO 0,00 h 20 W/m 8,2 km/h (2 Bft)
15.11.2010 16:00 10,0 C 88 % 1008,0 hPa 0,0 l/m N 0,00 h 11 W/m 11,8 km/h (2 Bft)
15.11.2010 17:00 9,0 C 90 % 1009,1 hPa 0,0 l/m N-NW 0,00 h 0 W/m 13,7 km/h (3 Bft)
15.11.2010 18:00 8,0 C 92 % 1009,9 hPa 0,0 l/m N-NW 0,00 h 0 W/m 17,4 km/h (3 Bft)
15.11.2010 19:00 7,4 C 94 % 1010,5 hPa 0,0 l/m N 0,00 h 0 W/m 15,0 km/h (3 Bft)
15.11.2010 20:00 7,1 C 95 % 1011,2 hPa 0,2 l/m N 0,00 h 0 W/m 8,9 km/h (2 Bft)
15.11.2010 21:00 6,6 C 95 % 1011,9 hPa 0,2 l/m N-NW 0,00 h 0 W/m 8,4 km/h (2 Bft)
15.11.2010 22:00 6,4 C 96 % 1012,3 hPa 0,2 l/m N-NW 0,00 h 0 W/m 6,8 km/h (2 Bft)
15.11.2010 23:00 6,2 C 95 % 1012,4 hPa 0,2 l/m N-NW 0,00 h 0 W/m 8,7 km/h (2 Bft)
16.11.2010 00:00 5,9 C 95 % 1012,7 hPa 0,0 l/m N 0,00 h 0 W/m 7,5 km/h (2 Bft)
16.11.2010 01:00 5,7 C 95 % 1012,7 hPa 0,2 l/m N 0,00 h 0 W/m 7,6 km/h (2 Bft)
16.11.2010 02:00 5,5 C 95 % 1012,9 hPa 1,4 l/m N-NW 0,00 h 0 W/m 8,3 km/h (2 Bft)
16.11.2010 03:00 5,0 C 95 % 1013,0 hPa 1,6 l/m N 0,00 h 0 W/m 11,3 km/h (2 Bft)
16.11.2010 04:00 4,3 C 95 % 1013,3 hPa 2,8 l/m N-NW 0,00 h 0 W/m 9,0 km/h (2 Bft)
16.11.2010 05:00 3,6 C 94 % 1013,5 hPa 2,4 l/m N-NW 0,00 h 0 W/m 10,5 km/h (2 Bft)
16.11.2010 06:00 3,0 C 94 % 1014,0 hPa 2,4 l/m W-NW 0,00 h 0 W/m 6,2 km/h (2 Bft)
16.11.2010 07:00 2,4 C 94 % 1014,7 hPa 1,8 l/m W-NW 0,00 h 0 W/m 2,7 km/h (1 Bft)
16.11.2010 08:00 1,8 C 95 % 1015,6 hPa 1,2 l/m N 0,00 h 11 W/m 2,4 km/h (1 Bft)
16.11.2010 09:00 1,9 C 96 % 1016,3 hPa 0,6 l/m W-NW 0,00 h 29 W/m 1,3 km/h (1 Bft)
16.11.2010 10:00 2,1 C 96 % 1016,8 hPa 0,8 l/m N 0,00 h 33 W/m 2,1 km/h (1 Bft)
16.11.2010 11:00 2,0 C 96 % 1016,8 hPa 0,8 l/m N 0,00 h 71 W/m 1,2 km/h (1 Bft)
16.11.2010 12:00 2,5 C 97 % 1016,6 hPa 0,2 l/m N 0,00 h 49 W/m 2,0 km/h (1 Bft)
16.11.2010 13:00 3,0 C 97 % 1016,6 hPa 0,4 l/m N 0,00 h 38 W/m 1,9 km/h (1 Bft)
16.11.2010 14:00 3,2 C 97 % 1016,5 hPa 0,2 l/m N-NO 0,00 h 34 W/m 4,3 km/h (1 Bft)
16.11.2010 15:00 3,2 C 96 % 1017,0 hPa 0,6 l/m NW 0,00 h 15 W/m 5,3 km/h (1 Bft)
16.11.2010 16:00 2,8 C 95 % 1017,2 hPa 0,4 l/m N-NO 0,00 h 6 W/m 3,1 km/h (1 Bft)
16.11.2010 17:00 2,6 C 95 % 1017,4 hPa 0,4 l/m N 0,00 h 0 W/m 1,6 km/h (1 Bft)
16.11.2010 18:00 2,4 C 95 % 1017,3 hPa 0,2 l/m N 0,00 h 0 W/m 0,4 km/h (0 Bft)
16.11.2010 19:00 2,4 C 96 % 1017,4 hPa 0,2 l/m SW 0,00 h 0 W/m 3,2 km/h (1 Bft)
16.11.2010 20:00 2,4 C 96 % 1017,2 hPa 0,2 l/m N 0,00 h 0 W/m 1,3 km/h (1 Bft)
16.11.2010 21:00 2,4 C 96 % 1016,7 hPa 0,0 l/m N 0,00 h 0 W/m 1,1 km/h (0 Bft)
16.11.2010 22:00 2,4 C 97 % 1016,5 hPa 0,0 l/m SW 0,00 h 0 W/m 2,1 km/h (1 Bft)
16.11.2010 23:00 2,3 C 97 % 1015,9 hPa 0,0 l/m N 0,00 h 0 W/m 1,1 km/h (0 Bft)
17.11.2010 00:00 2,4 C 97 % 1015,4 hPa 0,0 l/m N 0,00 h 0 W/m 0,4 km/h (0 Bft)
17.11.2010 01:00 2,6 C 97 % 1014,6 hPa 0,0 l/m NW 0,00 h 0 W/m 3,6 km/h (1 Bft)
17.11.2010 02:00 2,6 C 97 % 1013,8 hPa 0,0 l/m NO 0,00 h 0 W/m 5,1 km/h (1 Bft)
17.11.2010 03:00 2,5 C 97 % 1013,3 hPa 0,0 l/m NO 0,00 h 0 W/m 3,9 km/h (1 Bft)
17.11.2010 04:00 2,4 C 97 % 1012,8 hPa 0,0 l/m NO 0,00 h 0 W/m 3,6 km/h (1 Bft)
17.11.2010 05:00 2,4 C 97 % 1012,4 hPa 0,0 l/m N 0,00 h 0 W/m 2,3 km/h (1 Bft)
17.11.2010 06:00 2,4 C 97 % 1012,0 hPa 0,0 l/m NO 0,00 h 0 W/m 3,2 km/h (1 Bft)
17.11.2010 07:00 2,4 C 97 % 1011,6 hPa 0,0 l/m O-SO 0,00 h 5 W/m 4,7 km/h (1 Bft)
17.11.2010 08:00 2,2 C 97 % 1011,4 hPa 0,0 l/m O-SO 0,00 h 15 W/m 3,3 km/h (1 Bft)
17.11.2010 09:00 2,2 C 97 % 1011,0 hPa 0,0 l/m O-SO 0,00 h 37 W/m 3,3 km/h (1 Bft)
17.11.2010 10:00 2,6 C 95 % 1010,8 hPa 0,0 l/m O-SO 0,00 h 73 W/m 6,3 km/h (2 Bft)
17.11.2010 11:00 2,9 C 90 % 1010,3 hPa 0,0 l/m O-SO 0,00 h 63 W/m 8,2 km/h (2 Bft)
17.11.2010 12:00 3,0 C 90 % 1009,6 hPa 0,0 l/m O-SO 0,00 h 71 W/m 8,3 km/h (2 Bft)
17.11.2010 13:00 3,0 C 90 % 1008,9 hPa 0,0 l/m O-SO 0,00 h 59 W/m 9,4 km/h (2 Bft)
17.11.2010 14:00 2,9 C 89 % 1008,2 hPa 0,0 l/m SO 0,00 h 42 W/m 10,2 km/h (2 Bft)
17.11.2010 15:00 2,9 C 90 % 1007,7 hPa 0,0 l/m O-SO 0,00 h 22 W/m 7,9 km/h (2 Bft)
17.11.2010 16:00 2,9 C 90 % 1007,6 hPa 0,0 l/m SO 0,00 h 7 W/m 6,5 km/h (2 Bft)
17.11.2010 17:00 2,7 C 90 % 1007,6 hPa 0,0 l/m S-SO 0,00 h 0 W/m 5,6 km/h (1 Bft)
17.11.2010 18:00 2,6 C 90 % 1007,8 hPa 0,0 l/m SO 0,00 h 0 W/m 3,9 km/h (1 Bft)
17.11.2010 19:00 2,6 C 91 % 1007,8 hPa 0,0 l/m N 0,00 h 0 W/m 0,5 km/h (0 Bft)
17.11.2010 20:00 2,6 C 91 % 1007,7 hPa 0,0 l/m N 0,00 h 0 W/m 0,3 km/h (0 Bft)
17.11.2010 21:00 2,7 C 92 % 1008,0 hPa 0,0 l/m N 0,00 h 0 W/m 0,1 km/h (0 Bft)
17.11.2010 22:00 2,7 C 93 % 1008,3 hPa 0,0 l/m N 0,00 h 0 W/m 0,7 km/h (0 Bft)
17.11.2010 23:00 2,7 C 93 % 1008,2 hPa 0,0 l/m S-SW 0,00 h 0 W/m 4,0 km/h (1 Bft)
18.11.2010 00:00 2,6 C 94 % 1008,2 hPa 0,2 l/m S-SW 0,00 h 0 W/m 3,7 km/h (1 Bft)
18.11.2010 01:00 1,9 C 93 % 1007,9 hPa 0,0 l/m N 0,00 h 0 W/m 1,2 km/h (1 Bft)
18.11.2010 02:00 0,9 C 93 % 1007,8 hPa 0,0 l/m N 0,00 h 0 W/m 0,1 km/h (0 Bft)
18.11.2010 03:00 0,1 C 94 % 1007,5 hPa 0,0 l/m N 0,00 h 0 W/m 0,0 km/h (0 Bft)
18.11.2010 04:00 -0,1 C 95 % 1007,5 hPa 0,0 l/m N 0,00 h 0 W/m 0,3 km/h (0 Bft)
18.11.2010 05:00 -0,2 C 95 % 1007,5 hPa 0,0 l/m N 0,00 h 0 W/m 0,1 km/h (0 Bft)
18.11.2010 06:00 -0,3 C 96 % 1007,9 hPa 0,0 l/m N 0,00 h 0 W/m 0,0 km/h (0 Bft)
18.11.2010 07:00 -0,6 C 96 % 1008,2 hPa 0,0 l/m N 0,00 h 6 W/m 0,3 km/h (0 Bft)
18.11.2010 08:00 -0,5 C 96 % 1008,8 hPa 0,0 l/m N 0,00 h 33 W/m 0,7 km/h (0 Bft)
18.11.2010 09:00 0,3 C 98 % 1009,3 hPa 0,0 l/m N-NO 0,00 h 50 W/m 2,9 km/h (1 Bft)
18.11.2010 10:00 0,8 C 98 % 1009,6 hPa 0,0 l/m N 0,00 h 66 W/m 2,5 km/h (1 Bft)
18.11.2010 11:00 1,3 C 98 % 1010,1 hPa 0,0 l/m N 0,00 h 92 W/m 1,3 km/h (1 Bft)
18.11.2010 12:00 2,2 C 99 % 1010,2 hPa 0,0 l/m N-NO 0,00 h 108 W/m 3,7 km/h (1 Bft)
18.11.2010 13:00 3,3 C 97 % 1010,1 hPa 0,0 l/m S-SW 0,00 h 108 W/m 8,6 km/h (2 Bft)
18.11.2010 14:00 3,9 C 95 % 1010,2 hPa 0,0 l/m SW 0,08 h 92 W/m 9,8 km/h (2 Bft)
18.11.2010 15:00 4,1 C 94 % 1010,6 hPa 0,0 l/m S-SW 0,00 h 19 W/m 6,7 km/h (2 Bft)
18.11.2010 16:00 3,7 C 95 % 1011,1 hPa 0,0 l/m S-SW 0,00 h 5 W/m 9,1 km/h (2 Bft)
18.11.2010 17:00 3,6 C 96 % 1011,8 hPa 0,0 l/m S-SW 0,00 h 0 W/m 4,7 km/h (1 Bft)
18.11.2010 18:00 3,4 C 96 % 1012,5 hPa 0,0 l/m S-SW 0,00 h 0 W/m 4,7 km/h (1 Bft)
18.11.2010 19:00 3,4 C 96 % 1013,0 hPa 0,0 l/m S-SW 0,00 h 0 W/m 5,9 km/h (2 Bft)
18.11.2010 20:00 3,6 C 97 % 1013,4 hPa 0,0 l/m S-SW 0,00 h 0 W/m 4,4 km/h (1 Bft)
18.11.2010 21:00 3,6 C 97 % 1013,8 hPa 0,0 l/m SW 0,00 h 0 W/m 5,7 km/h (1 Bft)
18.11.2010 22:00 3,6 C 97 % 1014,0 hPa 0,0 l/m SW 0,00 h 0 W/m 4,0 km/h (1 Bft)
18.11.2010 23:00 3,2 C 97 % 1014,4 hPa 0,0 l/m N 0,00 h 0 W/m 0,7 km/h (0 Bft)
19.11.2010 00:00 2,4 C 96 % 1014,4 hPa 0,0 l/m N 0,00 h 0 W/m 0,3 km/h (0 Bft)
19.11.2010 01:00 2,5 C 97 % 1014,5 hPa 0,0 l/m N 0,00 h 0 W/m 0,0 km/h (0 Bft)
19.11.2010 02:00 2,6 C 97 % 1014,9 hPa 0,0 l/m N 0,00 h 0 W/m 0,0 km/h (0 Bft)
19.11.2010 03:00 2,7 C 97 % 1014,9 hPa 0,0 l/m N 0,00 h 0 W/m 0,4 km/h (0 Bft)
19.11.2010 04:00 2,8 C 97 % 1015,2 hPa 0,0 l/m N 0,00 h 0 W/m 1,7 km/h (1 Bft)
19.11.2010 05:00 2,8 C 98 % 1015,1 hPa 0,0 l/m N 0,00 h 0 W/m 0,1 km/h (0 Bft)
19.11.2010 06:00 2,8 C 98 % 1015,5 hPa 0,0 l/m N 0,00 h 0 W/m 0,5 km/h (0 Bft)
19.11.2010 07:00 2,9 C 98 % 1016,0 hPa 0,0 l/m SW 0,00 h 6 W/m 1,2 km/h (1 Bft)
19.11.2010 08:00 3,4 C 98 % 1016,3 hPa 0,0 l/m S 0,00 h 27 W/m 5,7 km/h (1 Bft)
19.11.2010 09:00 4,0 C 98 % 1016,7 hPa 0,0 l/m S 0,00 h 38 W/m 9,9 km/h (2 Bft)
19.11.2010 10:00 4,6 C 98 % 1017,3 hPa 0,0 l/m SW 0,00 h 69 W/m 8,3 km/h (2 Bft)
19.11.2010 11:00 5,4 C 94 % 1017,1 hPa 0,0 l/m SW 0,00 h 108 W/m 9,9 km/h (2 Bft)
19.11.2010 12:00 6,4 C 89 % 1016,9 hPa 0,0 l/m SW 0,08 h 174 W/m 8,7 km/h (2 Bft)
19.11.2010 13:00 6,7 C 87 % 1016,6 hPa 0,0 l/m SW 0,00 h 136 W/m 9,9 km/h (2 Bft)
19.11.2010 14:00 6,8 C 87 % 1016,2 hPa 0,0 l/m SW 0,00 h 66 W/m 8,6 km/h (2 Bft)
19.11.2010 15:00 6,6 C 88 % 1016,2 hPa 0,0 l/m SW 0,00 h 44 W/m 6,3 km/h (2 Bft)
19.11.2010 16:00 6,4 C 88 % 1016,2 hPa 0,0 l/m SW 0,00 h 16 W/m 3,3 km/h (1 Bft)
19.11.2010 17:00 5,7 C 88 % 1016,7 hPa 0,0 l/m N 0,00 h 0 W/m 0,0 km/h (0 Bft)
19.11.2010 18:00 4,7 C 91 % 1016,9 hPa 0,0 l/m N 0,00 h 0 W/m 0,8 km/h (0 Bft)
19.11.2010 19:00 4,1 C 92 % 1017,2 hPa 0,0 l/m N 0,00 h 0 W/m 0,0 km/h (0 Bft)
19.11.2010 20:00 3,9 C 93 % 1017,4 hPa 0,0 l/m N 0,00 h 0 W/m 0,0 km/h (0 Bft)
19.11.2010 21:00 3,8 C 94 % 1017,6 hPa 0,0 l/m N 0,00 h 0 W/m 0,1 km/h (0 Bft)
19.11.2010 22:00 3,4 C 94 % 1017,4 hPa 0,0 l/m N 0,00 h 0 W/m 0,0 km/h (0 Bft)
19.11.2010 23:00 2,6 C 94 % 1017,4 hPa 0,0 l/m N 0,00 h 0 W/m 0,0 km/h (0 Bft)
20.11.2010 00:00 1,8 C 94 % 1017,2 hPa 0,0 l/m N 0,00 h 0 W/m 0,0 km/h (0 Bft)
20.11.2010 01:00 1,0 C 94 % 1017,3 hPa 0,0 l/m N 0,00 h 0 W/m 0,4 km/h (0 Bft)
20.11.2010 02:00 0,3 C 95 % 1017,0 hPa 0,0 l/m N 0,00 h 0 W/m 0,0 km/h (0 Bft)
20.11.2010 03:00 -0,3 C 95 % 1016,6 hPa 0,0 l/m N 0,00 h 0 W/m 0,0 km/h (0 Bft)
20.11.2010 04:00 -0,8 C 95 % 1016,3 hPa 0,0 l/m N 0,00 h 0 W/m 0,4 km/h (0 Bft)
20.11.2010 05:00 -1,3 C 95 % 1015,9 hPa 0,0 l/m N 0,00 h 0 W/m 1,1 km/h (0 Bft)
20.11.2010 06:00 -1,8 C 95 % 1015,5 hPa 0,0 l/m N 0,00 h 0 W/m 2,1 km/h (1 Bft)
20.11.2010 07:00 -2,2 C 96 % 1015,6 hPa 0,0 l/m N 0,00 h 9 W/m 4,1 km/h (1 Bft)
20.11.2010 08:00 -2,0 C 96 % 1015,8 hPa 0,0 l/m N-NW 0,00 h 36 W/m 4,3 km/h (1 Bft)
20.11.2010 09:00 -1,0 C 97 % 1015,8 hPa 0,0 l/m N 0,00 h 95 W/m 4,3 km/h (1 Bft)
20.11.2010 10:00 1,0 C 96 % 1015,4 hPa 0,0 l/m N 0,08 h 139 W/m 4,0 km/h (1 Bft)
20.11.2010 11:00 2,8 C 91 % 1014,8 hPa 0,0 l/m O-NO 1,00 h 264 W/m 6,8 km/h (2 Bft)
20.11.2010 12:00 4,1 C 88 % 1014,0 hPa 0,0 l/m N-NO 1,00 h 320 W/m 8,6 km/h (2 Bft)
20.11.2010 13:00 4,2 C 88 % 1013,4 hPa 0,0 l/m N-NO 1,00 h 264 W/m 10,4 km/h (2 Bft)
20.11.2010 14:00 3,2 C 91 % 1013,0 hPa 0,0 l/m N-NO 0,25 h 120 W/m 10,9 km/h (2 Bft)
20.11.2010 15:00 2,4 C 94 % 1012,7 hPa 0,0 l/m N-NO 0,00 h 44 W/m 11,6 km/h (2 Bft)
20.11.2010 16:00 2,3 C 95 % 1012,7 hPa 0,0 l/m N-NO 0,00 h 11 W/m 7,2 km/h (2 Bft)
20.11.2010 17:00 2,5 C 96 % 1012,5 hPa 0,0 l/m NO 0,00 h 0 W/m 9,5 km/h (2 Bft)
20.11.2010 18:00 2,6 C 96 % 1012,1 hPa 0,0 l/m NO 0,00 h 0 W/m 10,2 km/h (2 Bft)
20.11.2010 19:00 2,4 C 96 % 1011,8 hPa 0,0 l/m O-NO 0,00 h 0 W/m 13,2 km/h (3 Bft)
20.11.2010 20:00 2,1 C 95 % 1011,3 hPa 0,0 l/m NO 0,00 h 0 W/m 10,9 km/h (2 Bft)
20.11.2010 21:00 1,7 C 96 % 1010,9 hPa 0,0 l/m O 0,00 h 0 W/m 10,1 km/h (2 Bft)
20.11.2010 22:00 1,2 C 96 % 1010,4 hPa 0,0 l/m O-NO 0,00 h 0 W/m 14,9 km/h (3 Bft)
20.11.2010 23:00 1,1 C 97 % 1010,0 hPa 0,0 l/m O-NO 0,00 h 0 W/m 11,7 km/h (2 Bft)
21.11.2010 00:00 1,1 C 97 % 1009,4 hPa 0,0 l/m O-NO 0,00 h 0 W/m 10,9 km/h (2 Bft)
21.11.2010 01:00 0,9 C 97 % 1008,8 hPa 0,0 l/m O-NO 0,00 h 0 W/m 14,0 km/h (3 Bft)
21.11.2010 02:00 0,8 C 97 % 1008,3 hPa 0,0 l/m O-NO 0,00 h 0 W/m 14,0 km/h (3 Bft)
21.11.2010 03:00 0,8 C 97 % 1007,6 hPa 0,0 l/m O-NO 0,00 h 0 W/m 14,1 km/h (3 Bft)
21.11.2010 04:00 1,0 C 98 % 1007,0 hPa 0,0 l/m O-NO 0,00 h 0 W/m 13,8 km/h (3 Bft)
21.11.2010 05:00 1,2 C 98 % 1006,6 hPa 0,0 l/m O-NO 0,00 h 0 W/m 15,2 km/h (3 Bft)
21.11.2010 06:00 1,0 C 97 % 1006,3 hPa 0,0 l/m O-NO 0,00 h 0 W/m 16,1 km/h (3 Bft)
21.11.2010 07:00 0,7 C 97 % 1005,9 hPa 0,0 l/m O-NO 0,00 h 0 W/m 14,2 km/h (3 Bft)
21.11.2010 08:00 0,9 C 98 % 1005,9 hPa 0,0 l/m O 0,00 h 9 W/m 13,4 km/h (3 Bft)
21.11.2010 09:00 1,2 C 98 % 1005,8 hPa 0,0 l/m O 0,00 h 15 W/m 11,4 km/h (2 Bft)
21.11.2010 10:00 1,4 C 98 % 1006,0 hPa 0,0 l/m O-SO 0,00 h 23 W/m 9,5 km/h (2 Bft)
21.11.2010 11:00 1,7 C 98 % 1005,6 hPa 0,0 l/m O-NO 0,00 h 37 W/m 9,8 km/h (2 Bft)
21.11.2010 12:00 2,2 C 98 % 1004,8 hPa 0,0 l/m NO 0,00 h 95 W/m 12,6 km/h (3 Bft)
21.11.2010 13:00 2,6 C 97 % 1004,5 hPa 0,0 l/m O-NO 0,00 h 43 W/m 10,9 km/h (2 Bft)
21.11.2010 14:00 2,6 C 97 % 1004,4 hPa 0,0 l/m O 0,00 h 27 W/m 10,3 km/h (2 Bft)
21.11.2010 15:00 2,7 C 96 % 1003,9 hPa 0,0 l/m O-NO 0,00 h 29 W/m 10,9 km/h (2 Bft)
21.11.2010 16:00 2,7 C 96 % 1003,7 hPa 0,0 l/m O 0,00 h 8 W/m 12,7 km/h (3 Bft)
21.11.2010 17:00 2,7 C 96 % 1003,5 hPa 0,0 l/m O-NO 0,00 h 0 W/m 10,5 km/h (2 Bft)
21.11.2010 18:00 2,7 C 96 % 1003,3 hPa 0,0 l/m O-NO 0,00 h 0 W/m 8,8 km/h (2 Bft)
21.11.2010 19:00 2,7 C 96 % 1002,9 hPa 0,0 l/m NO 0,00 h 0 W/m 10,9 km/h (2 Bft)
21.11.2010 20:00 2,7 C 96 % 1002,6 hPa 0,0 l/m O 0,00 h 0 W/m 7,1 km/h (2 Bft)
21.11.2010 21:00 2,8 C 96 % 1002,4 hPa 0,0 l/m NO 0,00 h 0 W/m 4,3 km/h (1 Bft)
21.11.2010 22:00 2,8 C 96 % 1001,7 hPa 0,0 l/m N 0,00 h 0 W/m 2,3 km/h (1 Bft)
21.11.2010 23:00 2,7 C 97 % 1001,4 hPa 0,0 l/m N 0,00 h 0 W/m 2,7 km/h (1 Bft)
Min-Datum _ 20.11.10 19.11.10 21.11.10 - - - - 15.11.10
_ Min-Zeit 07:15 12:55 23:50 - - - - 00:00
Minimum _ -2,2 C 86 % 1001,0 hPa - - - - 0,0 km/h (0 Bft)
Max-Datum _ 15.11.10 18.11.10 19.11.10 16.11.10 - 18.11.10 20.11.10 15.11.10
_ Max-Zeit 13:35 11:25 20:50 04:05 - 14:30 12:40 18:20
Maximum _ 10,5 C 99 % 1017,7 hPa 2,8 l/m - 0,08 h 353 W/m 24,1 km/h
N (4 Bft)
Durchschnitt _ 3,3 C 95 % 1011,5 hPa #19,8 l/m O-NO #3:30 h 57 W/m 5,7 km/h (1 Bft)